Weather History for KCWF - March, 2013

Change the Weather History Date:

Sunday, March 3, 2013

  Actual Average Record
Temperature  
Mean Temperature 46 °F -  
Max Temperature 60 °F 66 °F 80 °F (2004)
Min Temperature 32 °F 51 °F 32 °F (2002)
Degree Days  
Heating Degree Days 19    
Moisture  
Dew Point 31 °F    
Average Humidity 71    
Maximum Humidity 93    
Minimum Humidity 22    
Precipitation  
Precipitation 0.00 in - - ()
Sea Level Pressure  
Sea Level Pressure 30.22 in    
Wind  
Wind Speed 2 mph (South)    
Max Wind Speed 12 mph    
Max Gust Speed -    
Visibility 10 miles    
Events      
Averages and records for this station are not official NWS values.
T = Trace of Precipitation, MM = Missing Value Source: NWS Daily Summary

Daily Weather History Graph

Daily Weather History Graph

Search for Another Location

Airport or City:

Trip Planner

Search our weather history database for the weather conditions in past years. The results will help you decide how hot, cold, wet, or windy it might be!

Date:

Astronomy

Mar. 03, 2013 Rise Set
Actual Time 6:36 AM CST 6:13 PM CST
Civil Twilight 6:12 AM CST 6:37 PM CST
Nautical Twilight 5:44 AM CST 7:04 PM CST
Astronomical Twilight 5:16 AM CST 7:32 PM CST
Moon No Moon Rise 10:19 AM CST (3/3)
Length of Visible Light 12h 25m
Length of Day
11h 37m
Waning Gibbous, 63% of the Moon is Illuminated
Mar 3
Waning Gibbous
Mar 4
Last Quarter
Mar 11
New
Mar 19
First Quarter
Mar 27
Full

Hourly Weather History & Observations

Time (CST) Temp. Windchill Dew Point Humidity Pressure Visibility Wind Dir Wind Speed Gust Speed Precip Events Conditions
12:15 AM 36.9 °F - 28.9 °F 73% 30.29 in 10.0 mi Calm Calm - N/A   Clear
12:35 AM 35.6 °F - 30.0 °F 80% 30.29 in 10.0 mi Calm Calm - N/A   Clear
12:55 AM 34.9 °F - 30.2 °F 83% 30.29 in 10.0 mi Calm Calm - N/A   Clear
1:15 AM 35.1 °F - 30.7 °F 84% 30.29 in 10.0 mi Calm Calm - N/A   Clear
1:55 AM 35.2 °F - 30.7 °F 84% 30.28 in 10.0 mi Calm Calm - N/A   Clear
2:15 AM 34.0 °F - 30.2 °F 86% 30.27 in 10.0 mi Calm Calm - N/A   Clear
2:35 AM 33.8 °F 30.8 °F 30.2 °F 87% 30.27 in 10.0 mi West 3.5 mph - N/A   Clear
2:55 AM 34.3 °F - 30.9 °F 87% 30.26 in 10.0 mi Calm Calm - N/A   Clear
3:15 AM 34.0 °F - 30.7 °F 88% 30.25 in 10.0 mi Calm Calm - N/A   Clear
3:35 AM 32.4 °F - 28.9 °F 87% 30.26 in 10.0 mi Calm Calm - N/A   Clear
3:55 AM 32.4 °F - 30.2 °F 92% 30.26 in 10.0 mi Calm Calm - N/A   Clear
4:15 AM 33.3 °F - 31.1 °F 92% 30.26 in 10.0 mi Calm Calm - N/A   Clear
4:35 AM 33.4 °F - 30.7 °F 90% 30.26 in 10.0 mi Calm Calm - N/A   Clear
5:15 AM 32.2 °F - 30.4 °F 93% 30.27 in 10.0 mi Calm Calm - N/A   Clear
5:35 AM 32.4 °F - 29.7 °F 90% 30.28 in 10.0 mi Calm Calm - N/A   Clear
6:50 AM 32.0 °F - 30.2 °F 93% 30.28 in 10.0 mi Calm Calm - N/A   Clear
7:50 AM 37.4 °F - 32.0 °F 81% 30.30 in 10.0 mi Calm Calm - N/A   Clear
8:50 AM 42.8 °F - 28.4 °F 57% 30.31 in 10.0 mi Calm Calm - N/A   Clear
9:59 AM 50.0 °F - 26.6 °F 40% 30.30 in 10.0 mi West 4.6 mph - N/A   Clear
10:54 AM 53.6 °F - 24.8 °F 33% 30.29 in 10.0 mi SW 4.6 mph - N/A   Clear
11:58 AM 55.4 °F - 23.0 °F 29% 30.27 in 10.0 mi SSW 3.5 mph - N/A   Clear
12:45 PM 57.2 °F - 21.2 °F 25% 30.23 in 10.0 mi SSW 6.9 mph - N/A   Clear
1:45 PM 59.0 °F - 21.2 °F 23% 30.20 in 10.0 mi South 8.1 mph - N/A   Clear
2:45 PM 60.8 °F - 21.2 °F 22% 30.18 in 10.0 mi South 8.1 mph - N/A   Clear
3:50 PM 60.8 °F - 28.4 °F 29% 30.16 in 10.0 mi SSW 10.4 mph - N/A   Scattered Clouds
4:50 PM 57.2 °F - 28.4 °F 33% 30.16 in 10.0 mi SSW 11.5 mph - N/A   Scattered Clouds
5:45 PM 55.4 °F - 32.0 °F 41% 30.15 in 10.0 mi South 11.5 mph - N/A   Scattered Clouds
6:50 PM 50.0 °F - 35.6 °F 58% 30.16 in 10.0 mi South 8.1 mph - N/A   Clear
7:45 PM 44.6 °F 40.7 °F 37.4 °F 76% 30.15 in 10.0 mi SSE 6.9 mph - N/A   Clear
8:50 PM 42.8 °F 40.1 °F 37.4 °F 81% 30.15 in 10.0 mi SSE 4.6 mph - N/A   Clear
9:50 PM 42.8 °F 38.0 °F 39.2 °F 87% 30.13 in 10.0 mi SSE 8.1 mph - N/A   Clear
10:15 PM 42.3 °F 40.5 °F 38.3 °F 86% 30.13 in 10.0 mi SSE 3.5 mph - N/A   Clear
10:35 PM 41.2 °F 37.3 °F 37.8 °F 88% 30.12 in 10.0 mi SSE 5.8 mph - N/A   Clear
10:55 PM 40.3 °F 36.3 °F 37.0 °F 88% 30.11 in 10.0 mi SSE 5.8 mph - N/A   Clear
11:15 PM 41.2 °F 38.2 °F 38.3 °F 89% 30.10 in 10.0 mi SSE 4.6 mph - N/A   Clear
11:35 PM 41.9 °F 38.2 °F 38.7 °F 88% 30.10 in 10.0 mi SSE 5.8 mph - N/A   Clear
11:55 PM 41.9 °F 39.0 °F 38.8 °F 89% 30.09 in 10.0 mi SSE 4.6 mph - N/A   Clear